Precipitable_Water
1.62 1.74 1.81 1.80 1.78 1.85 1.77 1.66 1.52 1.65 1.72 1.74 1.77 1.81 1.74 1.72 1.67 1.53 1.39 1.46 1.06 1.00 0.98 0.95 0.92 0.86 0.81 0.84 0.81 0.87 0.80 0.83 0.66 0.71 0.78 0.90 0.86 0.94 0.99 1.11 1.11 1.11 1.24
1.63 1.76 1.85 1.89 1.93 1.94 1.87 1.70 1.67 1.69 1.79 1.81 1.88 1.83 1.73 1.55 1.49 1.26 1.12 1.12 1.07 0.96 0.88 0.86 0.85 0.81 0.77 0.79 0.76 0.79 0.77 0.75 0.68 0.63 0.73 0.73 0.80 0.86 0.99 0.95 0.91 1.01 1.12
1.73 1.78 1.88 1.94 1.93 1.91 1.91 1.74 1.73 1.71 1.83 1.92 1.80 1.69 1.51 1.33 1.15 0.96 0.93 0.98 0.93 0.85 0.83 0.86 0.82 0.80 0.76 0.76 0.79 0.78 0.79 0.77 0.77 0.69 0.68 0.75 0.78 0.89 0.80 0.79 0.85 0.89 0.90
1.84 1.83 1.88 1.90 1.90 1.92 1.88 1.84 1.82 1.80 1.85 1.83 1.78 1.68 1.38 1.17 0.99 0.88 0.79 0.72 0.75 0.80 0.82 0.84 0.76 0.74 0.69 0.66 0.68 0.67 0.66 0.67 0.70 0.64 0.64 0.65 0.68 0.71 0.67 0.66 0.61 0.72 0.74
1.95 2.03 1.92 1.88 1.90 1.92 1.88 1.82 1.91 1.83 1.83 1.84 1.81 1.66 1.22 1.05 0.76 0.73 0.70 0.73 0.75 0.73 0.70 0.69 0.61 0.62 0.59 0.55 0.53 0.55 0.54 0.52 0.53 0.51 0.54 0.57 0.58 0.60 0.58 0.60 0.58 0.62 0.66
2.01 1.82 1.77 1.80 1.83 1.84 2.11 2.00 1.84 1.79 1.78 1.78 1.76 1.54 1.12 0.82 0.58 0.62 0.74 0.72 0.71 0.67 0.63 0.64 0.63 0.56 0.64 0.64 0.58 0.58 0.58 0.52 0.48 0.50 0.51 0.50 0.54 0.58 0.59 0.57 0.58 0.55 0.47
1.69 1.70 1.73 1.71 1.70 1.70 1.88 1.86 1.75 1.73 1.73 1.73 1.66 1.36 0.96 0.63 0.58 0.64 0.68 0.69 0.67 0.67 0.67 0.66 0.61 0.59 0.59 0.65 0.66 0.67 0.68 0.63 0.60 0.57 0.54 0.55 0.53 0.56 0.58 0.57 0.57 0.58 0.58
1.61 1.64 1.70 1.61 1.67 1.68 1.64 1.63 1.61 1.67 1.67 1.62 1.39 1.04 0.74 0.59 0.60 0.60 0.65 0.70 0.70 0.70 0.70 0.70 0.66 0.63 0.58 0.61 0.68 0.65 0.65 0.64 0.63 0.63 0.64 0.64 0.64 0.66 0.64 0.61 0.62 0.64 0.65
1.51 1.49 1.56 1.53 1.59 1.58 1.47 1.49 1.64 1.62 1.56 1.45 1.16 0.86 0.62 0.56 0.58 0.63 0.72 0.75 0.74 0.74 0.72 0.67 0.69 0.69 0.63 0.62 0.65 0.67 0.68 0.67 0.68 0.68 0.70 0.71 0.71 0.72 0.69 0.66 0.61 0.58 0.54
1.55 1.49 1.60 1.62 1.54 1.47 1.46 1.58 1.63 1.62 1.49 1.20 0.95 0.74 0.64 0.60 0.63 0.67 0.74 0.80 0.78 0.77 0.86 0.87 0.82 0.76 0.68 0.66 0.63 0.65 0.66 0.69 0.65 0.70 0.74 0.72 0.78 0.77 0.74 0.73 0.66 0.58 0.57
1.55 1.65 1.64 1.58 1.56 1.57 1.58 1.63 1.62 1.48 1.24 1.00 0.80 0.73 0.74 0.74 0.68 0.68 0.72 0.79 0.75 0.77 0.80 0.83 0.89 0.83 0.76 0.72 0.70 0.68 0.68 0.72 0.68 0.71 0.74 0.66 0.64 0.66 0.69 0.71 0.69 0.65 0.59
1.63 1.64 1.66 1.67 1.64 1.57 1.59 1.59 1.53 1.31 1.03 0.80 0.76 0.79 0.88 0.85 0.78 0.69 0.70 0.72 0.75 0.77 0.82 0.86 0.85 0.79 0.75 0.77 0.79 0.80 0.79 0.77 0.77 0.74 0.70 0.66 0.62 0.62 0.64 0.68 0.69 0.69 0.70
1.60 1.58 1.62 1.63 1.60 1.62 1.54 1.46 1.27 1.07 0.86 0.83 0.83 0.86 0.89 0.88 0.87 0.80 0.77 0.77 0.78 0.81 0.86 0.82 0.81 0.80 0.83 0.83 0.84 0.82 0.83 0.78 0.76 0.70 0.64 0.65 0.65 0.65 0.66 0.66 0.70 0.72 0.72
1.68 1.64 1.63 1.58 1.55 1.56 1.48 1.35 1.10 0.94 0.91 0.90 0.90 0.89 0.89 0.92 0.94 0.96 0.94 0.97 1.00 0.93 0.86 0.80 0.78 0.81 0.85 0.84 0.83 0.83 0.83 0.81 0.72 0.68 0.68 0.67 0.65 0.64 0.64 0.66 0.63 0.65 0.62
1.65 1.63 1.61 1.55 1.49 1.44 1.32 1.13 1.04 1.04 0.98 0.94 0.94 0.95 0.94 0.94 0.98 0.99 0.91 0.86 0.79 0.73 0.69 0.68 0.66 0.75 0.79 0.83 0.82 0.76 0.75 0.71 0.66 0.65 0.61 0.58 0.59 0.63 0.64 0.68 0.64 0.62 0.60
1.56 1.60 1.59 1.51 1.42 1.27 1.14 1.03 1.02 1.02 0.95 0.97 1.02 1.04 1.02 0.95 0.95 0.86 0.70 0.67 0.67 0.67 0.63 0.63 0.72 0.78 0.76 0.78 0.73 0.70 0.68 0.61 0.59 0.59 0.58 0.60 0.60 0.62 0.64 0.66 0.64 0.62 0.62
1.46 1.48 1.54 1.46 1.30 1.17 1.06 0.99 0.93 0.97 0.96 0.98 0.95 0.89 0.85 0.82 0.69 0.60 0.63 0.65 0.63 0.64 0.68 0.71 0.77 0.78 0.79 0.74 0.70 0.64 0.53 0.55 0.58 0.56 0.57 0.58 0.60 0.63 0.63 0.63 0.61 0.61 0.63
1.56 1.52 1.47 1.36 1.23 1.10 1.06 1.04 1.01 0.94 0.91 0.86 0.86 0.77 0.65 0.59 0.59 0.59 0.61 0.60 0.61 0.72 0.81 0.73 0.82 0.79 0.77 0.71 0.65 0.54 0.53 0.54 0.53 0.53 0.54 0.59 0.62 0.61 0.59 0.57 0.57 0.59 0.61
1.48 1.43 1.33 1.27 1.19 1.14 1.12 1.06 0.99 0.98 0.96 0.86 0.73 0.70 0.67 0.62 0.55 0.61 0.69 0.73 0.73 0.77 0.79 0.82 0.84 0.83 0.74 0.67 0.56 0.54 0.54 0.52 0.50 0.53 0.57 0.60 0.61 0.60 0.57 0.56 0.54 0.57 0.64
1.41 1.36 1.28 1.26 1.19 1.10 1.04 1.00 1.01 0.94 0.76 0.65 0.66 0.67 0.76 0.71 0.70 0.72 0.75 0.77 0.84 0.92 0.85 0.90 0.84 0.77 0.67 0.59 0.55 0.52 0.49 0.48 0.48 0.51 0.53 0.57 0.58 0.58 0.56 0.55 0.56 0.59 0.62
1.33 1.33 1.28 1.16 1.05 1.05 1.02 0.99 0.90 0.70 0.66 0.63 0.64 0.68 0.67 0.67 0.65 0.70 0.74 0.91 0.81 0.86 0.96 0.83 0.77 0.69 0.58 0.52 0.50 0.47 0.46 0.45 0.43 0.38 0.37 0.35 0.35 0.40 0.49 0.56 0.59 0.59 0.58
1.27 1.16 1.06 1.03 1.01 0.96 0.93 0.82 0.68 0.65 0.64 0.65 0.70 0.74 0.75 0.70 0.74 0.84 0.86 0.83 0.88 0.89 0.87 0.79 0.69 0.60 0.53 0.50 0.50 0.49 0.49 0.46 0.40 0.36 0.32 0.32 0.34 0.37 0.40 0.46 0.52 0.56 0.61
1.06 0.97 0.95 0.92 0.90 0.87 0.75 0.70 0.66 0.66 0.67 0.71 0.72 0.77 0.75 0.77 0.80 0.80 0.82 0.90 0.89 0.89 0.81 0.71 0.66 0.59 0.53 0.54 0.55 0.54 0.52 0.49 0.41 0.34 0.34 0.35 0.33 0.36 0.42 0.47 0.53 0.56 0.62
0.98 0.93 0.88 0.86 0.83 0.70 0.69 0.65 0.69 0.69 0.67 0.67 0.70 0.75 0.76 0.78 0.81 0.90 0.89 0.91 0.90 0.84 0.77 0.72 0.70 0.62 0.54 0.56 0.58 0.57 0.57 0.54 0.43 0.37 0.36 0.33 0.30 0.36 0.46 0.53 0.56 0.58 0.61
0.91 0.87 0.83 0.78 0.69 0.67 0.71 0.70 0.71 0.73 0.72 0.73 0.72 0.73 0.80 0.83 0.89 0.87 0.95 0.93 0.90 0.82 0.78 0.75 0.72 0.61 0.54 0.58 0.59 0.58 0.56 0.52 0.41 0.37 0.34 0.31 0.28 0.37 0.50 0.55 0.56 0.58 0.58
0.83 0.81 0.74 0.69 0.69 0.72 0.75 0.72 0.72 0.72 0.72 0.75 0.76 0.78 0.83 0.85 0.89 0.92 0.94 0.92 0.89 0.85 0.83 0.75 0.71 0.60 0.55 0.59 0.58 0.53 0.49 0.47 0.40 0.35 0.32 0.30 0.31 0.39 0.52 0.56 0.57 0.59 0.58
Wind_Speed
12 11 11 10 11 11 10 10 10 9 8 8 9 10 10 11 12 12 13 12 13 13 13 13 13 14 14 14 14 15 15 15 16 16 16 16 16 16 17 17 18 18 18
13 13 12 12 12 12 12 12 12 11 10 9 9 10 11 12 13 13 13 13 13 13 13 13 13 14 15 15 16 16 16 17 17 18 18 18 17 18 18 19 19 19 19
12 12 12 13 14 15 15 15 14 13 11 10 10 11 12 12 13 13 12 12 12 13 13 14 15 15 15 16 16 17 17 18 18 19 19 19 19 18 20 19 20 20 21
12 12 14 16 18 18 19 19 17 15 13 11 11 11 12 13 13 13 13 12 12 12 12 12 13 14 15 16 16 16 17 18 18 18 19 19 19 20 20 21 21 21 23
11 12 12 11 13 17 22 21 20 18 15 13 12 12 12 13 13 13 12 11 11 11 11 12 13 14 15 16 16 17 17 18 18 19 18 19 20 21 21 22 22 23 24
10 10 9 10 11 11 15 17 21 18 14 13 12 12 13 14 13 12 12 11 11 12 12 13 14 16 17 17 18 19 19 19 20 20 21 21 22 23 23 24 25 25 24
9 11 12 10 9 7 2 7 13 13 12 12 11 12 13 13 12 11 11 12 12 13 14 15 16 17 19 19 20 20 20 20 21 22 23 23 24 25 26 26 26 27 27
8 8 9 7 7 4 5 7 8 8 9 9 10 11 12 11 11 11 12 13 13 15 15 16 18 19 20 21 22 22 22 23 24 24 24 25 25 25 26 27 28 29 29
7 7 6 7 7 7 6 8 8 8 8 9 11 11 11 11 12 13 15 15 16 17 18 18 19 21 22 23 24 25 25 25 27 27 28 28 28 28 28 28 28 29 30
8 7 7 7 8 8 8 9 9 9 10 10 11 11 12 12 13 15 16 17 18 20 20 22 23 24 25 26 27 27 28 28 29 29 29 29 29 30 29 29 30 30 30
9 8 8 8 9 9 9 9 10 10 10 11 11 12 13 14 15 16 18 19 20 21 22 24 24 26 27 28 28 28 29 30 31 29 29 29 29 29 29 30 31 31 32
12 12 11 10 11 10 10 10 10 10 11 12 12 13 15 16 17 19 20 21 22 23 25 26 27 28 29 28 28 29 29 29 28 28 29 30 29 30 30 31 32 32 33
13 13 13 12 12 12 11 11 11 12 12 13 14 15 16 18 19 20 21 23 24 25 26 27 28 29 29 28 28 28 28 28 28 29 30 30 30 31 32 32 31 32 33
10 10 11 12 12 12 12 12 12 13 13 14 15 18 19 20 20 22 23 24 26 26 26 27 28 28 28 28 28 28 27 28 30 31 31 32 32 31 32 31 32 32 33
12 12 12 12 12 12 12 13 13 13 15 16 18 19 21 21 22 23 24 24 24 25 27 27 27 26 26 28 28 29 29 30 31 31 31 32 31 30 30 30 31 31 31
13 14 14 14 13 12 12 13 13 15 17 18 18 19 20 21 22 23 22 22 24 26 27 28 26 27 28 28 28 29 30 30 30 31 31 30 30 30 30 29 29 28 29
13 13 13 13 14 13 13 13 15 17 17 19 21 21 22 21 21 21 22 24 26 26 27 27 26 26 27 27 28 29 30 29 30 29 30 29 30 29 28 27 27 27 28
13 12 12 13 14 13 13 15 16 17 18 19 20 19 19 19 20 22 22 24 25 24 24 25 25 26 26 27 29 29 29 29 29 29 30 29 29 28 28 27 26 26 27
12 13 13 13 13 13 14 15 16 17 18 17 16 16 17 18 19 19 20 21 22 22 22 22 24 25 27 29 29 29 29 30 30 30 29 28 27 26 25 25 25 26 26
13 13 12 12 13 14 14 15 16 16 15 15 15 16 15 17 17 19 20 20 20 20 22 22 24 26 28 29 29 29 29 30 29 29 28 26 25 24 24 24 24 23 24
11 12 12 13 13 14 14 14 14 13 13 13 15 14 14 18 20 19 18 17 20 20 20 24 26 28 29 29 29 29 28 28 27 26 25 24 23 23 23 23 22 22 22
10 11 12 12 12 12 12 12 12 12 13 14 15 14 16 18 17 17 15 17 18 20 22 24 27 28 28 28 28 28 26 25 24 24 24 23 23 22 22 21 20 20 21
10 11 11 11 11 11 11 11 11 12 14 15 15 15 16 16 17 17 17 17 20 22 23 25 27 28 28 27 27 25 24 23 23 24 24 23 22 21 19 19 20 20 21
11 11 11 10 11 10 11 10 12 14 15 16 16 16 16 17 17 17 18 20 21 22 24 26 27 28 27 26 25 23 22 23 25 23 23 22 20 19 18 19 20 21 22
11 11 10 10 10 11 11 12 12 12 13 14 16 15 16 16 17 19 19 21 22 24 25 26 27 27 26 25 23 22 24 25 23 23 21 20 20 19 18 19 20 22 23
10 11 11 11 11 11 11 12 12 13 14 15 15 16 16 16 18 19 19 21 23 24 24 25 26 26 25 23 21 23 24 23 22 21 21 20 19 18 18 20 22 23 24
Wind_Direction
227 234 238 240 241 241 244 246 249 256 273 289 302 309 313 315 312 310 308 307 309 308 310 311 312 313 312 311 311 309 308 308 303 302 303 302 300 297 295 293 292 290 288
232 237 242 247 246 241 246 243 246 253 266 281 299 307 313 314 315 314 311 308 306 307 309 311 313 312 311 311 308 310 307 305 303 301 302 302 300 299 295 295 292 289 288
237 244 250 255 253 248 250 246 244 248 260 277 293 306 309 312 315 315 317 314 312 310 308 309 312 314 313 312 310 309 308 305 303 302 301 301 300 302 299 297 296 293 289
242 249 263 259 254 253 249 248 243 243 251 268 285 305 310 311 313 312 314 314 314 315 315 315 317 318 319 317 315 315 314 310 307 306 303 303 301 302 300 298 296 294 293
245 250 269 263 264 264 252 244 242 236 244 260 275 295 306 312 311 309 310 311 312 315 318 318 323 321 321 322 318 316 317 315 311 309 306 304 303 304 303 300 298 297 294
248 254 262 268 274 288 267 243 216 223 242 258 275 288 299 308 308 307 309 308 310 312 313 314 314 319 315 314 315 312 311 313 312 307 305 304 303 302 302 301 298 298 296
246 268 268 266 263 282 230 174 196 222 240 256 269 288 298 303 304 306 308 308 310 311 311 312 313 316 318 314 314 312 307 307 309 306 304 303 302 302 301 300 298 296 295
267 273 251 244 236 219 213 201 204 222 234 256 274 289 298 301 301 305 309 308 309 310 311 311 312 313 316 314 311 310 308 307 305 304 302 302 302 300 302 300 298 297 295
257 267 233 235 223 221 219 215 225 235 253 268 280 289 292 294 298 302 305 304 306 306 307 309 310 311 312 312 309 306 305 304 306 300 299 297 297 297 298 300 300 299 298
261 250 243 233 223 223 232 232 238 251 262 272 283 288 291 293 297 302 305 302 306 305 304 304 303 307 308 308 307 306 304 305 305 302 300 300 295 297 295 296 300 299 298
253 246 246 245 230 237 239 242 249 260 268 278 284 288 291 294 297 301 304 306 305 306 306 306 306 306 308 307 305 304 303 304 304 300 300 300 298 297 296 296 297 297 298
253 251 251 244 238 239 240 246 255 264 273 279 283 287 292 294 296 298 300 303 304 305 305 305 306 305 305 305 303 304 303 305 304 302 302 302 299 298 297 297 297 294 295
258 253 245 239 238 240 243 250 260 268 275 280 284 287 292 295 297 298 300 301 302 305 305 305 306 306 305 305 303 304 304 305 304 304 304 301 299 298 297 297 296 296 297
250 249 239 235 236 240 249 256 265 269 277 283 286 290 294 294 296 299 300 301 302 304 306 308 308 306 305 303 305 308 307 304 304 304 302 302 300 298 297 297 297 297 299
250 242 238 236 240 243 253 263 269 278 282 285 290 293 296 294 298 301 303 304 306 307 309 309 308 307 310 309 308 308 309 309 307 306 305 304 302 300 298 298 298 298 298
245 244 242 240 244 248 259 266 279 282 288 292 294 299 300 299 302 303 303 304 306 308 309 309 306 306 308 308 310 311 312 311 310 308 307 305 304 302 300 300 299 297 299
245 243 241 239 244 253 263 267 277 287 289 292 296 297 297 300 302 304 304 305 305 306 306 307 307 310 310 311 312 312 313 313 312 311 309 307 306 304 302 301 301 300 301
246 242 238 244 252 254 264 275 283 287 292 294 295 297 298 299 303 304 305 308 310 309 308 309 309 312 312 313 313 313 313 314 314 313 311 308 307 305 303 301 300 301 303
236 234 248 249 251 262 274 280 288 291 294 297 297 296 302 307 307 309 311 312 315 315 316 316 315 315 317 317 317 315 314 315 315 314 312 310 309 307 305 303 303 302 303
247 253 249 257 262 271 279 284 289 294 294 295 298 304 298 307 309 309 311 312 313 315 320 318 320 319 317 318 318 316 315 315 316 315 315 313 311 309 307 306 305 305 306
246 243 252 268 266 274 280 285 286 288 293 298 302 302 309 312 310 312 315 314 319 318 318 320 320 320 319 319 319 318 318 317 318 318 318 317 315 313 311 309 307 307 309
250 250 258 266 271 276 279 282 282 289 295 300 304 301 305 311 312 311 314 319 319 320 321 322 323 323 322 321 321 321 320 320 321 322 321 319 317 316 315 314 313 313 313
253 259 264 267 269 274 278 278 281 291 298 301 304 302 303 307 311 310 311 316 321 321 322 324 325 325 324 324 324 323 322 323 323 323 322 322 321 319 319 319 319 319 319
259 262 260 263 269 273 274 276 285 297 300 304 304 304 303 305 307 308 311 313 317 320 323 324 326 326 326 326 325 325 325 324 323 323 323 323 323 324 322 322 322 322 323
260 257 258 263 268 271 275 284 290 297 303 304 305 306 308 308 308 311 310 313 315 317 321 324 327 328 328 327 326 326 327 326 325 325 326 325 324 323 322 323 325 327 326
256 255 256 263 267 272 275 284 292 298 303 305 308 308 308 308 310 312 312 315 316 316 319 324 327 330 331 330 330 329 329 330 330 328 327 326 326 325 325 325 326 327 328